[[{"header":{"parameterUnit":"m.s-1","parameterCategory":1,"la1":30.2991,"la2":30.254,"lo1":-89.0895,"lo2":-89.0444,"dy":0.0017,"dx":0.0017,"nx":28,"ny":28,"refTime":"2025-08-21T09:00:00:Z","depth":0,"parameterNumber":2,"parameterNumberName":"U-component_of_WINDS"},"data":[0,0,0,0,0,0,0,0,0,0,0,0,0,0,0,0,0,0,0,0,0,0,0,0,0,0,0,0,0,0,0,0,0,0,0,0,0,0,0,0,0,0,0,0,0,0,0,0,0,0,0,0,0,0,0,0,0,0,0.5713,0.5713,0,0.5766,0.5767,0.5767,0.5784,0.5784,0.5784,0.5783,0.5837,0.5839,0.584,0,0,0,0,0,0,0,0,0,0,0,0,0,0.5625,0.5626,0.5713,0.5713,0.5714,0.5766,0.5767,0.5767,0.5784,0.5784,0.5783,0.5783,0.5837,0.5839,0.5841,0,0,0,0,0,0,0,0,0,0,0,0,0,0.5669,0.5627,0.5713,0.5729,0.5731,0.5766,0.5767,0.5768,0.5784,0.5784,0.5783,0.5783,0.5836,0.5838,0.5841,0.5864,0,0,0.5848,0.585,0,0,0,0,0,0,0,0,0.5666,0.5672,0.5726,0.5728,0.573,0.5768,0.5756,0.58,0.5784,0.5764,0.5783,0.5783,0.5814,0.5819,0.5829,0.5866,0.5869,0.5849,0.585,0.5851,0.5852,0,0,0,0,0,0,0,0.5663,0.567,0.5734,0.5726,0.5729,0.5733,0.5739,0.5764,0.579,0.5765,0.5767,0.5773,0.5815,0.5827,0.5831,0.5869,0.5849,0.5851,0.5852,0.5853,0.5929,0.593,0,0,0,0,0,0,0.5658,0.5667,0.5732,0.5735,0.5697,0.5735,0.5741,0.5756,0.579,0.5795,0.5773,0.5774,0.5823,0.5828,0.5833,0.5863,0.5851,0.5854,0.5855,0.5929,0.5929,0.593,0,0,0,0,0,0,0.5656,0.5663,0.573,0.5702,0.5711,0.5737,0.5753,0.5757,0.5769,0.5796,0.5801,0.578,0.5823,0.5829,0.5856,0.5865,0.5855,0.5857,0.5928,0.5929,0.593,0.5923,0,0,0,0,0,0,0.5653,0.5662,0.5671,0.5702,0.5712,0.5753,0.5754,0.5759,0.5773,0.5774,0.5804,0.5808,0.5823,0.5853,0.5859,0.5868,0.5859,0.5927,0.5928,0.5929,0.5922,0.5923,0.5924,0,0,0,0,0,0.565,0.5667,0.5672,0.568,0.5724,0.5753,0.5759,0.5775,0.5774,0.5783,0.5801,0.5808,0.5863,0.5855,0.5862,0.5873,0.5927,0.5928,0.5929,0.5922,0.5923,0.5924,0,0,0,0,0,0,0.5636,0.5671,0.5677,0.5704,0.5726,0.5756,0.5768,0.5776,0.5798,0.5798,0.5817,0.5824,0.585,0.5864,0.5854,0.5897,0.5895,0.5898,0.5887,0.5888,0.5889,0.5885,0.5861,0,0,0,0,0,0.5636,0.5657,0.5687,0.5708,0.5719,0.5741,0.5755,0.5766,0.5789,0.5798,0.5817,0.5839,0.5861,0.5875,0.5897,0.5924,0.5931,0.5935,0.5936,0.5936,0.5938,0.5955,0.5957,0.5934,0.5934,0.5934,0,0,0.5637,0.5659,0.5671,0.5706,0.5724,0.5745,0.5749,0.5771,0.5787,0.5801,0.5828,0.5843,0.5869,0.5896,0.5909,0.5909,0.5947,0.5938,0.5938,0.594,0.5956,0.5958,0.596,0.5934,0.5934,0.5934,0,0,0.5649,0.5667,0.5688,0.5706,0.5733,0.5748,0.5753,0.5782,0.5793,0.5821,0.5832,0.5851,0.5889,0.5907,0.5921,0.5941,0.5949,0.5948,0.5952,0.5968,0.597,0.5971,0.5979,0.5982,0.595,0.595,0.595,0,0.5646,0.5679,0.5697,0.5719,0.5735,0.5749,0.5769,0.5786,0.5819,0.5829,0.5828,0.5877,0.5895,0.5927,0.5932,0.5943,0.595,0.5945,0.5968,0.597,0.5972,0.5979,0.5982,0.595,0.595,0.595,0.595,0,0.5675,0.5698,0.5711,0.5743,0.576,0.5781,0.5802,0.5817,0.5827,0.5842,0.5871,0.5893,0.592,0.5929,0.5938,0.5963,0.5962,0.5964,0.5962,0.5973,0.5981,0.5984,0.5949,0.595,0.595,0.595,0,0,0.568,0.5722,0.5727,0.5742,0.5773,0.5791,0.5813,0.584,0.5853,0.5875,0.5895,0.5927,0.593,0.5946,0.5958,0.5971,0.5987,0.5973,0.5973,0.5975,0.6016,0.6015,0.6018,0.5992,0.5993,0.5993,0.6014,0,0.5696,0.5737,0.5754,0.5787,0.5808,0.5822,0.5842,0.5863,0.5878,0.5899,0.5915,0.5938,0.594,0.595,0.5964,0.5982,0.5996,0.5981,0.6011,0.6011,0.6004,0.6022,0.602,0.6039,0.6017,0.6018,0.6018,0,0.5721,0.5744,0.5779,0.5809,0.5819,0.5836,0.5863,0.5882,0.5907,0.5917,0.5936,0.5947,0.5971,0.5968,0.6002,0.5991,0.6004,0.6015,0.6016,0.602,0.6016,0.6026,0.6045,0.6048,0.6023,0.6023,0.6022,0,0.5722,0.5762,0.5788,0.5801,0.5836,0.5848,0.5863,0.5888,0.5903,0.5927,0.5937,0.5963,0.5977,0.5997,0.6015,0.601,0.6047,0.6045,0.6056,0.6056,0.6064,0.6063,0.6085,0.6071,0.6071,0.6071,0.6071,0,0.5739,0.576,0.579,0.5806,0.583,0.5849,0.5873,0.5889,0.5911,0.5931,0.5944,0.5962,0.5985,0.6006,0.602,0.6047,0.6053,0.6062,0.6065,0.6061,0.606,0.607,0.6069,0.6072,0.6072,0.6072,0.6072,0,0.5744,0.5765,0.5795,0.5826,0.5834,0.5851,0.5877,0.5894,0.591,0.5935,0.5942,0.5967,0.5993,0.6013,0.6046,0.6056,0.6084,0.6087,0.6076,0.6078,0.6088,0.6087,0.6118,0.6124,0.6105,0.6105,0.6106,0,0.5754,0.5771,0.5804,0.5819,0.5834,0.5857,0.5873,0.5893,0.5909,0.594,0.5952,0.5979,0.6002,0.6043,0.6064,0.609,0.6094,0.6104,0.6098,0.6094,0.6095,0.6094,0.6097,0.6104,0.6104,0.6104,0.6104,0,0.577,0.5779,0.5802,0.5829,0.5848,0.587,0.5892,0.5903,0.5928,0.5945,0.5972,0.599,0.6024,0.6051,0.6079,0.6095,0.6104,0.6106,0.611,0.6106,0.6099,0.6104,0.6078,0.6105,0.6105,0.6105,0.6105,0.6105,0.5778,0.5794,0.582,0.5846,0.5865,0.5885,0.5903,0.5921,0.5944,0.5974,0.5984,0.6012,0.6037,0.6076,0.6092,0.6115,0.6115,0.6121,0.6122,0.6124,0.6124,0.6095,0.612,0.612,0.612,0.612,0.612,0,0.5795,0.5813,0.5836,0.5867,0.5887,0.5894,0.5919,0.5936,0.596,0.5983,0.6005,0.6037,0.6063,0.6087,0.6114,0.6127,0.6132,0.6134,0.6133,0.6137,0.6121,0.6115,0.613,0.613,0.613,0.613,0.613,0.613,0.5806,0.5834,0.5847,0.5884,0.5901,0.5929,0.5943,0.5962,0.5981,0.6015,0.6037,0.6053,0.6076,0.6105,0.613,0.6136,0.6146,0.6147,0.6154,0.6139,0.6138,0.6137,0.6131,0.6149,0.6149,0.6168,0.6168,0.6168]},{"header":{"parameterUnit":"m.s-1","parameterCategory":1,"la1":30.2991,"la2":30.254,"lo1":-89.0895,"lo2":-89.0444,"dy":0.0017,"dx":0.0017,"nx":28,"ny":28,"refTime":"2025-08-21T09:00:00:Z","depth":0,"parameterNumber":3,"parameterNumberName":"V-component_of_WINDS"},"data":[0,0,0,0,0,0,0,0,0,0,0,0,0,0,0,0,0,0,0,0,0,0,0,0,0,0,0,0,0,0,0,0,0,0,0,0,0,0,0,0,0,0,0,0,0,0,0,0,0,0,0,0,0,0,0,0,0,0,-0.7571,-0.7571,0,-0.7552,-0.7552,-0.7551,-0.7563,-0.7563,-0.7564,-0.7564,-0.7542,-0.7541,-0.754,0,0,0,0,0,0,0,0,0,0,0,0,0,-0.7614,-0.7613,-0.7571,-0.7571,-0.757,-0.7552,-0.7552,-0.7551,-0.7563,-0.7563,-0.7564,-0.7565,-0.7543,-0.7541,-0.754,0,0,0,0,0,0,0,0,0,0,0,0,0,-0.7595,-0.7613,-0.7571,-0.7574,-0.7574,-0.7552,-0.7552,-0.7551,-0.7563,-0.7563,-0.7564,-0.7565,-0.7543,-0.7542,-0.754,-0.7513,0,0,-0.7535,-0.7534,0,0,0,0,0,0,0,0,-0.7596,-0.7594,-0.7574,-0.7574,-0.7574,-0.7561,-0.7559,-0.7538,-0.7562,-0.7567,-0.7564,-0.7565,-0.7548,-0.7546,-0.754,-0.7512,-0.7511,-0.7535,-0.7534,-0.7533,-0.7533,0,0,0,0,0,0,0,-0.7598,-0.7595,-0.7563,-0.7573,-0.7573,-0.7575,-0.7574,-0.7555,-0.7553,-0.7566,-0.7567,-0.7565,-0.7548,-0.7542,-0.754,-0.7511,-0.7535,-0.7533,-0.7532,-0.7532,-0.7459,-0.7458,0,0,0,0,0,0,-0.7599,-0.7596,-0.7564,-0.7563,-0.7587,-0.7574,-0.7572,-0.7564,-0.7553,-0.7552,-0.7564,-0.7566,-0.7544,-0.7542,-0.7539,-0.7506,-0.7533,-0.7531,-0.7531,-0.746,-0.7459,-0.7458,0,0,0,0,0,0,-0.76,-0.7596,-0.7565,-0.7579,-0.7575,-0.7572,-0.7563,-0.7563,-0.7557,-0.7551,-0.7551,-0.7559,-0.7545,-0.7541,-0.7519,-0.7505,-0.7531,-0.7529,-0.7461,-0.746,-0.7458,-0.744,0,0,0,0,0,0,-0.7601,-0.7596,-0.7587,-0.7579,-0.7575,-0.7546,-0.7562,-0.7562,-0.7554,-0.7556,-0.7546,-0.7545,-0.7545,-0.7522,-0.7518,-0.7504,-0.7528,-0.7462,-0.746,-0.7459,-0.7442,-0.7438,-0.7435,0,0,0,0,0,-0.7603,-0.7582,-0.7586,-0.7582,-0.7563,-0.7545,-0.7543,-0.7544,-0.7553,-0.7543,-0.7539,-0.7545,-0.7508,-0.752,-0.7515,-0.75,-0.7463,-0.7461,-0.7459,-0.7444,-0.7439,-0.7435,0,0,0,0,0,0,-0.7587,-0.7581,-0.7586,-0.7562,-0.7554,-0.7547,-0.7534,-0.7539,-0.7528,-0.7529,-0.7531,-0.7528,-0.7505,-0.7501,-0.7514,-0.7473,-0.7487,-0.7484,-0.7477,-0.7473,-0.7469,-0.747,-0.7527,0,0,0,0,0,-0.7581,-0.7568,-0.7563,-0.7543,-0.7539,-0.7537,-0.753,-0.7532,-0.7523,-0.7519,-0.7514,-0.7505,-0.7491,-0.7482,-0.7469,-0.7442,-0.7439,-0.743,-0.7426,-0.7424,-0.742,-0.7405,-0.74,-0.7451,-0.7451,-0.7451,0,0,-0.7568,-0.7563,-0.7555,-0.754,-0.7534,-0.7519,-0.7534,-0.7519,-0.7508,-0.7517,-0.7496,-0.7492,-0.7481,-0.7457,-0.7446,-0.7452,-0.7406,-0.7421,-0.7419,-0.7417,-0.7402,-0.7397,-0.7393,-0.7449,-0.745,-0.745,0,0,-0.7537,-0.7533,-0.7515,-0.7509,-0.75,-0.7499,-0.7495,-0.7487,-0.7485,-0.7464,-0.7471,-0.7457,-0.7434,-0.7426,-0.7419,-0.7385,-0.739,-0.7381,-0.7363,-0.7348,-0.7344,-0.734,-0.7327,-0.7322,-0.7378,-0.7378,-0.7378,0,-0.7521,-0.7501,-0.7504,-0.7488,-0.7481,-0.749,-0.7471,-0.7465,-0.7452,-0.7446,-0.7454,-0.7425,-0.7419,-0.7392,-0.7384,-0.7378,-0.7372,-0.7381,-0.7344,-0.734,-0.7337,-0.7324,-0.7319,-0.7377,-0.7377,-0.7377,-0.7378,0,-0.7482,-0.7467,-0.7454,-0.7442,-0.7433,-0.7416,-0.7416,-0.7407,-0.741,-0.7408,-0.7386,-0.7379,-0.7365,-0.7359,-0.7361,-0.7332,-0.7336,-0.7344,-0.7358,-0.7331,-0.7319,-0.7314,-0.7376,-0.7376,-0.7376,-0.7377,0,0,-0.7439,-0.743,-0.7424,-0.7419,-0.741,-0.7399,-0.7382,-0.7368,-0.736,-0.7351,-0.7335,-0.7316,-0.7323,-0.7315,-0.7317,-0.7304,-0.7276,-0.7313,-0.7313,-0.7305,-0.7242,-0.7235,-0.7229,-0.728,-0.7279,-0.7278,-0.7242,0,-0.7406,-0.7376,-0.7379,-0.7351,-0.7337,-0.7346,-0.7331,-0.7323,-0.7321,-0.7308,-0.7306,-0.7291,-0.7303,-0.7298,-0.7286,-0.7282,-0.7263,-0.7285,-0.7264,-0.7263,-0.7264,-0.7223,-0.7215,-0.7182,-0.7238,-0.7237,-0.7236,0,-0.7363,-0.7353,-0.7324,-0.7317,-0.7311,-0.7298,-0.7285,-0.7274,-0.7265,-0.7265,-0.7256,-0.726,-0.7242,-0.7257,-0.7231,-0.7246,-0.7238,-0.7235,-0.7234,-0.723,-0.7247,-0.7217,-0.7171,-0.7165,-0.7229,-0.723,-0.723,0,-0.7332,-0.7312,-0.7292,-0.7287,-0.7279,-0.7269,-0.7265,-0.7257,-0.7249,-0.7238,-0.7233,-0.722,-0.7212,-0.7202,-0.7202,-0.7213,-0.7175,-0.7191,-0.7173,-0.7173,-0.7163,-0.7163,-0.7114,-0.7161,-0.7161,-0.7161,-0.7161,0,-0.7294,-0.7275,-0.7278,-0.7265,-0.7244,-0.7248,-0.7226,-0.7223,-0.7217,-0.7203,-0.721,-0.7196,-0.7198,-0.7184,-0.7184,-0.7162,-0.7159,-0.7157,-0.7157,-0.7155,-0.7155,-0.7149,-0.715,-0.7159,-0.716,-0.716,-0.716,0,-0.7256,-0.7257,-0.7235,-0.723,-0.7228,-0.7212,-0.7207,-0.7195,-0.7194,-0.7176,-0.7172,-0.717,-0.7154,-0.7154,-0.7136,-0.7135,-0.7108,-0.7111,-0.7111,-0.7111,-0.7092,-0.7093,-0.7035,-0.7027,-0.7081,-0.7081,-0.708,0,-0.7231,-0.7216,-0.721,-0.7201,-0.7197,-0.7183,-0.7175,-0.7178,-0.7169,-0.7159,-0.7147,-0.7132,-0.712,-0.7095,-0.7091,-0.7077,-0.7079,-0.7059,-0.7076,-0.7075,-0.7076,-0.7076,-0.7074,-0.7055,-0.7055,-0.7054,-0.7054,0,-0.7185,-0.7186,-0.7175,-0.7163,-0.7153,-0.7144,-0.7135,-0.7128,-0.713,-0.7119,-0.7104,-0.7095,-0.7077,-0.7061,-0.7048,-0.7043,-0.7048,-0.7049,-0.7044,-0.7041,-0.704,-0.7039,-0.71,-0.705,-0.705,-0.705,-0.7051,-0.7051,-0.7151,-0.7139,-0.7132,-0.7119,-0.7113,-0.7105,-0.7092,-0.709,-0.7078,-0.7064,-0.7066,-0.7048,-0.704,-0.7023,-0.7017,-0.7002,-0.7009,-0.7001,-0.6999,-0.6997,-0.6994,-0.7045,-0.7,-0.7,-0.7,-0.7,-0.7,0,-0.7105,-0.7101,-0.7089,-0.7077,-0.7066,-0.7074,-0.7065,-0.7055,-0.704,-0.7032,-0.702,-0.7002,-0.6987,-0.6983,-0.6968,-0.6958,-0.696,-0.6953,-0.6953,-0.6952,-0.699,-0.6995,-0.6952,-0.6952,-0.6952,-0.6952,-0.6952,-0.6952,-0.7079,-0.7058,-0.7058,-0.7034,-0.7031,-0.7014,-0.7008,-0.7,-0.6994,-0.6973,-0.6962,-0.6959,-0.6953,-0.6938,-0.6924,-0.6923,-0.6917,-0.6909,-0.6909,-0.6944,-0.6949,-0.6954,-0.6959,-0.6908,-0.6908,-0.6872,-0.6871,-0.6871]}]]